sat.trackr.live / text

‹ back to catalog

STARLINK-36611

NORAD 67830 · 2026-033K

PAYLOAD ACTIVE UNKNOWN

§ Identity

Operator
Country
US
Launch date
2026-02-16
Launch site
AFETR
Launch vehicle
Mass (kg)
RCS (m²)

Purposes: comms

External: N2YO · Heavens-Above · Gunter

§ Orbital elements

Epoch: 2026-09-19T07:57:46.479744Z

Period
94.27 min
Inclination
42.9999°
Eccentricity
0.0001430
Mean motion
15.27588841 rev/d
Perigee alt
482.0 km
Apogee alt
484.0 km
Semi-major
6,861.2 km
B*
5.5356e-4
RAAN
253.9363°
Arg perigee
272.1189°
Mean anomaly
87.9499°
Rev number
3,428

§ Raw data

STARLINK-366111 67830U 26033K   26262.33178796  .00015006  00000+0  55356-3 0  99982 67830  42.9999 253.9363 0001430 272.1189  87.9499 15.27588841 34289

JSON: /api/v1/satellites/67830 · /tle

For live sub-satellite position, see the globe view (requires WebGL).

§ Visibility from observer

Set your observer location to see the next 7 days of passes ≥ 10°. The values pass through the URL so the page stays shareable.

No JS? Fill the form by hand. The geolocation button needs JavaScript.